sat.trackr.live / text

‹ back to catalog

RESOURCESAT-2A

NORAD 41877 · 2016-074A

PAYLOAD ACTIVE UNKNOWN

§ Identity

Operator
Country
IND
Launch date
2016-12-07
Launch site
SRILR
Launch vehicle
Mass (kg)
RCS (m²)
4.16

Purposes: earth_obs

External: N2YO · Heavens-Above · Gunter

§ Orbital elements

Epoch: 2026-09-14T22:46:38.503200Z

Period
101.29 min
Inclination
98.7462°
Eccentricity
0.0002435
Mean motion
14.21612788 rev/d
Perigee alt
818.2 km
Apogee alt
821.7 km
Semi-major
7,198.0 km
B*
4.7818e-5
RAAN
330.6881°
Arg perigee
153.0452°
Mean anomaly
207.0853°
Rev number
50,705

§ Raw data

RESOURCESAT-2A1 41877U 16074A   26257.94905675  .00000061  00000+0  47818-4 0  99902 41877  98.7462 330.6881 0002435 153.0452 207.0853 14.21612788507050

JSON: /api/v1/satellites/41877 · /tle

For live sub-satellite position, see the globe view (requires WebGL).

§ Visibility from observer

Set your observer location to see the next 7 days of passes ≥ 10°. The values pass through the URL so the page stays shareable.

No JS? Fill the form by hand. The geolocation button needs JavaScript.

§ Radio — SatNOGS DB

ModeDescriptionDownlinkUplink
BPSK S-band telemetry 2.250 GHz

1 transmitter · refreshed weekly from db.satnogs.org